DW9029 Weather Reports


time (UTC)temp
C
wind
direction
speed
KPH
gust
KPH
rain 1hr
cm
rain 24hr
cm
rain mn
cm
humidity
%
barometer
mb
20260507061904 14 127 0.0 0.0 0.00 0.00 0.00 80 1009.5
20260507061404 13 163 0.0 0.0 0.00 0.00 0.00 81 1009.4
20260507060905 13 163 0.0 0.0 0.00 0.00 0.00 82 1009.4
20260507054905 13 173 0.0 0.0 0.00 0.00 0.00 83 1009.1
20260507054404 13 174 0.0 0.0 0.00 0.00 0.00 83 1009.1
20260507053905 13 174 0.0 0.0 0.00 0.00 0.00 83 1009.1
20260507053405 13 174 0.0 0.0 0.00 0.00 0.00 83 1009.0
20260507051905 13 175 0.0 0.0 0.00 0.00 0.00 83 1009.1
20260507050904 13 175 0.0 0.0 0.00 0.00 0.00 83 1009.0
20260507044905 13 175 0.0 0.0 0.00 0.00 0.00 84 1008.8
20260507044404 13 175 0.0 0.0 0.00 0.00 0.00 84 1008.8
20260507043904 13 175 0.0 0.0 0.00 0.00 0.00 84 1008.7
20260507043405 13 175 0.0 0.0 0.00 0.00 0.00 84 1008.7
20260507041904 13 175 0.0 0.0 0.00 0.00 0.00 83 1008.6
20260507041405 13 175 0.0 0.0 0.00 0.00 0.00 83 1008.4
20260507034905 13 175 0.0 0.0 0.00 0.00 0.00 81 1008.4
20260507034404 13 181 0.0 0.0 0.00 0.00 0.00 81 1008.3
20260507033905 13 207 0.0 0.0 0.00 0.00 0.00 80 1008.3
20260507031904 13 207 0.0 0.0 0.00 0.00 0.00 80 1008.4
20260507031405 13 207 0.0 0.0 0.00 0.00 0.00 79 1008.4
20260507030905 13 207 0.0 0.0 0.00 0.00 0.00 79 1008.4
20260507030405 13 207 0.0 0.0 0.00 0.00 0.00 79 1008.3
20260507024905 14 207 0.0 0.0 0.00 0.00 0.00 79 1008.2
20260507023905 14 207 0.0 0.0 0.00 0.00 0.00 78 1008.2
20260507021904 14 188 0.0 0.0 0.00 0.00 0.00 78 1008.1
20260507021404 14 187 0.0 4.8 0.00 0.00 0.00 78 1008.1
20260507020405 14 181 0.0 4.8 0.00 0.00 0.00 78 1008.1
20260507014905 14 182 1.6 8.0 0.00 0.00 0.00 77 1008.2
20260507014404 14 177 1.6 4.8 0.00 0.00 0.00 77 1008.2
20260507013904 14 179 0.0 4.8 0.00 0.00 0.00 77 1008.3
20260507011905 14 181 1.6 4.8 0.00 0.00 0.00 77 1008.4
20260507011404 14 178 0.0 0.0 0.00 0.00 0.00 77 1008.5
20260507010404 14 167 1.6 4.8 0.00 0.00 0.00 77 1008.5
20260507003905 14 182 0.0 0.0 0.00 0.00 0.00 76 1008.6
20260507003405 14 183 0.0 4.8 0.00 0.00 0.00 76 1008.6
20260507001904 14 174 1.6 11.3 0.00 0.00 0.00 76 1008.7
20260507001405 14 184 1.6 9.7 0.00 0.00 0.00 76 1008.8
20260507000406 15 186 3.2 11.3 0.00 0.00 0.00 76 1008.8
20260506233905 15 184 1.6 8.0 0.00 0.00 0.00 76 1008.9
20260506233405 15 186 1.6 4.8 0.00 0.00 0.00 77 1009.0
20260506231904 15 175 0.0 0.0 0.00 0.00 0.00 76 1009.0
20260506231404 15 175 0.0 0.0 0.00 0.00 0.00 76 1008.9
20260506230905 15 175 0.0 0.0 0.00 0.00 0.00 75 1009.0
20260506230405 15 178 0.0 4.8 0.00 0.00 0.00 74 1008.9
20260506224405 15 217 0.0 3.2 0.00 0.00 0.00 73 1009.0
20260506223405 15 182 0.0 8.0 0.00 0.00 0.00 71 1009.0
20260506221905 15 188 3.2 8.0 0.00 0.00 0.00 68 1009.0
20260506221405 15 170 0.0 4.8 0.00 0.00 0.00 67 1009.0
20260506220905 16 174 0.0 3.2 0.00 0.00 0.00 66 1008.9
20260506220404 16 192 0.0 4.8 0.00 0.00 0.00 66 1008.8
20260506214904 16 176 0.0 4.8 0.00 0.00 0.00 64 1008.9
20260506214405 16 166 0.0 3.2 0.00 0.00 0.00 63 1008.9
20260506213904 16 171 0.0 4.8 0.00 0.00 0.00 62 1008.9
20260506213405 17 162 1.6 8.0 0.00 0.00 0.00 60 1008.8
20260506211905 17 192 1.6 11.3 0.00 0.00 0.00 57 1008.6
20260506210904 17 230 0.0 11.3 0.00 0.00 0.00 57 1008.5
20260506210404 17 224 1.6 14.5 0.00 0.00 0.00 56 1008.4
20260506204904 18 257 3.2 12.9 0.00 0.00 0.00 56 1008.1
20260506204405 18 241 4.8 14.5 0.00 0.00 0.00 55 1008.1
20260506203905 18 249 4.8 11.3 0.00 0.00 0.00 55 1007.9
20260506203404 18 250 8.0 16.1 0.00 0.00 0.00 55 1007.9
20260506201904 18 242 3.2 12.9 0.00 0.00 0.00 54 1007.9
20260506201404 18 256 3.2 16.1 0.00 0.00 0.00 54 1007.9
20260506200905 18 228 6.4 14.5 0.00 0.00 0.00 53 1007.9
20260506200405 19 259 4.8 12.9 0.00 0.00 0.00 53 1007.8
20260506194905 20 231 4.8 14.5 0.00 0.00 0.00 51 1007.7
20260506194404 20 231 4.8 14.5 0.00 0.00 0.00 50 1007.6
20260506193904 20 245 3.2 8.0 0.00 0.00 0.00 50 1007.5
20260506193405 20 234 4.8 16.1 0.00 0.00 0.00 49 1007.4
20260506191904 20 247 3.2 12.9 0.00 0.00 0.00 49 1007.3
20260506191405 20 262 3.2 11.3 0.00 0.00 0.00 48 1007.2
20260506190905 20 250 1.6 9.7 0.00 0.00 0.00 48 1007.2
20260506190405 20 250 9.7 19.3 0.00 0.00 0.00 48 1007.1
20260506184905 21 251 6.4 19.3 0.00 0.00 0.00 46 1007.0
20260506184404 21 253 9.7 20.9 0.00 0.00 0.00 46 1007.0
20260506183405 21 255 14.5 22.5 0.00 0.00 0.00 45 1007.0
20260506181905 22 222 8.0 19.3 0.00 0.00 0.00 45 1007.0
20260506181404 22 236 6.4 14.5 0.00 0.00 0.00 45 1006.9
20260506180904 22 253 4.8 20.9 0.00 0.00 0.00 45 1006.9
20260506180405 22 241 11.3 24.1 0.00 0.00 0.00 43 1007.0
20260506174904 22 240 4.8 19.3 0.00 0.00 0.00 40 1007.0
20260506174404 22 217 8.0 19.3 0.00 0.00 0.00 40 1007.0
20260506173404 23 239 8.0 19.3 0.00 0.00 0.00 39 1007.0
20260506171905 23 208 6.4 12.9 0.00 0.00 0.00 39 1007.2
20260506171405 23 211 9.7 19.3 0.00 0.00 0.00 39 1007.2
20260506170405 23 217 6.4 22.5 0.00 0.00 0.00 39 1007.2
20260506163904 23 230 8.0 19.3 0.00 0.00 0.00 38 1007.3
20260506163404 23 229 9.7 24.1 0.00 0.00 0.00 39 1007.3
20260506161905 23 184 11.3 19.3 0.00 0.00 0.00 39 1007.3
20260506154904 23 141 4.8 14.5 0.00 0.00 0.00 35 1007.4
20260506154404 24 139 11.3 20.9 0.00 0.00 0.00 35 1007.5
20260506153904 24 124 8.0 20.9 0.00 0.00 0.00 35 1007.5
20260506151904 23 132 6.4 14.5 0.00 0.00 0.00 36 1007.8
20260506151405 23 42 3.2 8.0 0.00 0.00 0.00 36 1007.9
20260506150905 23 133 4.8 14.5 0.00 0.00 0.00 36 1008.0
20260506150404 23 77 1.6 16.1 0.00 0.00 0.00 36 1008.1
20260506144905 23 44 1.6 11.3 0.00 0.00 0.00 36 1008.3
20260506144404 23 89 1.6 11.3 0.00 0.00 0.00 36 1008.4
20260506143404 23 112 8.0 19.3 0.00 0.00 0.00 36 1008.6
20260506141905 23 190 4.8 16.1 0.00 0.00 0.00 36 1008.9
20260506141404 23 148 6.4 11.3 0.00 0.00 0.00 37 1008.9
20260506140904 23 209 4.8 8.0 0.00 0.00 0.00 36 1009.0
20260506140404 23 138 8.0 12.9 0.00 0.00 0.00 37 1009.0
20260506134905 22 89 4.8 11.3 0.00 0.00 0.00 37 1009.3
20260506134404 22 49 4.8 12.9 0.00 0.00 0.00 37 1009.2
20260506133904 22 67 3.2 11.3 0.00 0.00 0.00 36 1009.4
20260506133405 22 98 6.4 19.3 0.00 0.00 0.00 37 1009.5
20260506131904 22 86 3.2 8.0 0.00 0.00 0.00 37 1009.7
20260506131405 22 247 3.2 14.5 0.00 0.00 0.00 37 1009.8
20260506130905 22 129 12.9 19.3 0.00 0.00 0.00 37 1009.8
20260506130404 22 191 8.0 16.1 0.00 0.00 0.00 37 1009.9
20260506124904 22 202 8.0 14.5 0.00 0.00 0.00 38 1010.0
20260506124404 22 167 3.2 12.9 0.00 0.00 0.00 37 1010.0
20260506123404 22 140 4.8 11.3 0.00 0.00 0.00 38 1010.1
20260506121905 21 237 0.0 3.2 0.00 0.00 0.00 39 1010.3
20260506121405 21 121 0.0 4.8 0.00 0.00 0.00 39 1010.3
20260506120904 22 141 3.2 4.8 0.00 0.00 0.00 39 1010.4
20260506120404 22 127 0.0 11.3 0.00 0.00 0.00 39 1010.5
20260506114905 21 79 4.8 12.9 0.00 0.00 0.00 39 1010.6
20260506114404 21 163 1.6 11.3 0.00 0.00 0.00 39 1010.7
20260506113904 21 110 4.8 11.3 0.00 0.00 0.00 38 1010.8
20260506113405 21 133 4.8 11.3 0.00 0.00 0.00 40 1010.7
20260506111905 21 115 0.0 4.8 0.00 0.00 0.00 43 1010.8
20260506111404 21 126 0.0 4.8 0.00 0.00 0.00 44 1010.9
20260506110904 21 134 3.2 4.8 0.00 0.00 0.00 44 1010.9
20260506110404 21 165 1.6 9.7 0.00 0.00 0.00 44 1010.9
20260506104904 21 72 0.0 0.0 0.00 0.00 0.00 44 1011.2
20260506104405 21 60 1.6 9.7 0.00 0.00 0.00 45 1011.2
20260506103904 21 61 0.0 4.8 0.00 0.00 0.00 46 1011.2
20260506101905 20 117 1.6 4.8 0.00 0.00 0.00 49 1011.4
20260506101404 20 58 0.0 0.0 0.00 0.00 0.00 49 1011.4
20260506100904 20 68 0.0 4.8 0.00 0.00 0.00 50 1011.4
20260506094905 19 31 3.2 8.0 0.00 0.00 0.00 52 1011.5
20260506091904 18 124 0.0 0.0 0.00 0.00 0.00 54 1011.5
20260506090904 17 59 0.0 0.0 0.00 0.00 0.00 56 1011.5
20260506090405 17 17 0.0 0.0 0.00 0.00 0.00 55 1011.6
20260506084404 17 22 0.0 0.0 0.00 0.00 0.00 58 1011.7
20260506083905 17 26 0.0 4.8 0.00 0.00 0.00 57 1011.7
20260506081904 16 11 1.6 4.8 0.00 0.00 0.00 59 1011.7
20260506081405 16 53 4.8 9.7 0.00 0.00 0.00 59 1011.6
20260506080905 16 354 0.0 8.0 0.00 0.00 0.00 60 1011.7
20260506073404 16 36 6.4 9.7 0.00 0.00 0.00 60 1011.7
20260506071904 16 352 0.0 8.0 0.00 0.00 0.00 61 1011.7
20260506071404 16 18 1.6 8.0 0.00 0.00 0.00 62 1011.7
20260506070905 16 4 1.6 4.8 0.00 0.00 0.00 63 1011.6
20260506070405 16 12 0.0 9.7 0.00 0.00 0.00 63 1011.6